World > North America > United States > Ohio > Waterford

Hourly Waterford, OH Regional Weather

Feedback E-mail the Weather

Quick WX

Waterford, OH Weather Maps

°F °C°F °C
Waterford Weather Map
UTC Time: 9/29/2022, 11:45
Your Time:

Waterford, OH Regional Weather

Expires:202209291200;;646077
ASUS41 KCLE 291112
RWRCLE
OHIO REGIONAL WEATHER ROUNDUP
NATIONAL WEATHER SERVICE WILMINGTON, OH
700 AM EDT THU SEP 29 2022

NOTE: "FAIR" INDICATES FEW OR NO CLOUDS BELOW 12,000 FEET WITH NO
SIGNIFICANT WEATHER AND/OR OBSTRUCTIONS TO VISIBILITY.


OHZ036-037-039>041-045>050-054>059-063>069-073>076-082>088-291200-
  CENTRAL AND SOUTHEAST OHIO
  
CITY           SKY/WX    TMP DP  RH WIND       PRES   REMARKS
COLUMBUS       FAIR      46  45  96 NW3       30.45R                  
OSU AIRPORT    FAIR      46  44  93 CALM      30.45S                  
BOLTON FIELD   FAIR      43  43  99 N3        30.45F                  
RICKENBACK AFB FAIR      44  43  96 N5        30.45R                  
NEWARK         FOG       44  40  85 CALM      30.45R VSB 1            
MARION         FOG       42  41  96 N3        30.46S VSB 1/4          
LANCASTER      CLOUDY    40  39  97 CALM      30.45R                  
ZANESVILLE     FOG       42  41  96 E3        30.44S VSB 1/4          
NEW PHILLY     FAIR      45  44  97 CALM      30.45S                  
$$
  

SKY/WX - Weather  TMP - Temperature  DP - Dew Point  RH - Humidity
WIND - Wind Direction/Speed PRES - Barometric Pressure VSB - Visibility
WCI - Wind Chill Index E13G22 Wind - East Wind 13 mph/Gusts of 22 mph

Trending Headlines

Trending Entertainment Headlines

Waterford Radar Loop

Use the map search tool if you want to place a location marker on the radar map...

Waterford Quick Facts

National Two Day Weather Forecast


E-mail the Waterford Weather Forecast

Voice your opinion or tell us about page issues...